This is the latest recevied weather packets stored in our database for station/object KC1IUC-15. If no packets are shown the sender has not sent any weather packets the latest 10 day(s).
| Time | Temp. | Humidity | Pressure | Rain* | Wind** | Luminosity | Snow |
|---|---|---|---|---|---|---|---|
| 1777365003 | 4.44° C | 93% | 1022.5 hPa | 0 mm | - | 0 W/m² | - |
| 1777364703 | 4.44° C | 94% | 1022.2 hPa | 0 mm | - | 0 W/m² | - |
| 1777364403 | 4.44° C | 95% | 1022.2 hPa | 0 mm | - | 0 W/m² | - |
| 1777364103 | 4.44° C | 95% | 1022.2 hPa | 0 mm | - | 0 W/m² | - |
| 1777363803 | 4.44° C | 97% | 1022.5 hPa | 0 mm | - | 0 W/m² | - |
| 1777363503 | 4.44° C | 98% | 1022.2 hPa | 0 mm | - | 0 W/m² | - |
| 1777363203 | 4.44° C | 97% | 1022.2 hPa | 0 mm | - | 0 W/m² | - |
| 1777362903 | 4.44° C | 94% | 1022.2 hPa | 0 mm | - | 0 W/m² | - |
| 1777362603 | 4.44° C | 93% | 1022.2 hPa | 0 mm | - | 0 W/m² | - |
| 1777362303 | 4.44° C | 93% | 1022.2 hPa | 0 mm | - | 0 W/m² | - |
| 1777362003 | 4.44° C | 92% | 1022.2 hPa | 0 mm | - | 0 W/m² | - |
| 1777361703 | 5° C | 92% | 1022.2 hPa | 0 mm | - | 0 W/m² | - |
| 1777361403 | 5° C | 93% | 1022.2 hPa | 0 mm | - | 0 W/m² | - |
| 1777361103 | 5° C | 93% | 1022.2 hPa | 0 mm | - | 0 W/m² | - |
| 1777360803 | 5° C | 93% | 1021.9 hPa | 0 mm | - | 0 W/m² | - |
| 1777360503 | 5° C | 94% | 1022.5 hPa | 0 mm | - | 0 W/m² | - |
| 1777360203 | 5° C | 95% | 1022.2 hPa | 0 mm | - | 0 W/m² | - |
| 1777359903 | 5° C | 96% | 1022.2 hPa | 0 mm | - | 0 W/m² | - |
| 1777359603 | 5° C | 97% | 1021.9 hPa | 0 mm | - | 0 W/m² | - |
| 1777359303 | 5° C | 95% | 1022.2 hPa | 0 mm | - | 0 W/m² | - |
| 1777359003 | 5° C | 93% | 1022.2 hPa | 0 mm | - | 0 W/m² | - |
| 1777358703 | 5° C | 92% | 1022.2 hPa | 0 mm | - | 0 W/m² | - |
| 1777358403 | 5° C | 91% | 1022.2 hPa | 0 mm | - | 0 W/m² | - |
| 1777358103 | 5° C | 91% | 1022.2 hPa | 0 mm | - | 0 W/m² | - |
| 1777357803 | 5° C | 91% | 1022.2 hPa | 0 mm | - | 0 W/m² | - |
* Rain latest hour (hover to see other rain measurements)
** Current wind speed in m/s (hover to see current wind gust speed)